Zurück zum Katalog

FENGYUN 1C DEB

AktivSSO
NORAD 31361·DEBRIS·🇨🇳 China

Gestartet May 10, 1999 von Taiyuan Satellite Launch Center

Loading…

Nächste Überflüge (nächste 24 Stunden)

TLE

AktuellSource: Space-Track

Epoche: Sep 12, 2026, 08:54 UTC

1 31361U 99025BRR 26255.37128985  .00000115  00000-0  76324-4 0  9995
2 31361  98.5843 226.0989 0045213   3.0842 357.0604 14.17877738  4227

Verfolge FENGYUN 1C DEB in Echtzeit mit AllMySat

Download on the App Store